Regional Weather Roundup
Issued by NWS

Home | Current Version | Previous Version | Graphics & Text | Print | Product List | Glossary On
Versions: 1 2 3 4 5 6 7 8 9 10 11 12 13 14 15 16 17 18 19 20 21 22 23 24 25 26 27 28 29 30 31 32 33 34 35 36 37 38 39 40 41 42 43 44 45 46 47 48 49 50
711
ASUS44 KMEG 302110
RWRTN
TENNESSEE HOURLY STATE WEATHER ROUNDUP
NATIONAL WEATHER SERVICE MEMPHIS TN
400 PM CDT SAT APR 30 2016

TNZ002-004-019-021-049-052-054-088>092-302200-
WEST TENNESSEE

CITY           SKY/WX    TMP DP  RH WIND       PRES   REMARKS
MEMPHIS INTL   CLOUDY    75  62  64 SE17G24   29.74F
NWS MEMPHIS      N/A     75 N/A N/A MISG        N/A
JACKSON        CLOUDY    70  63  78 E7        29.79F
DYERSBURG      CLOUDY    73  63  68 SE6         N/A
UNION CITY     SUNNY     72  64  78 SE6       29.78F
LEXINGTON      MOSUNNY   66  64  94 S6        29.84F
$$

TNZ008-025-027-028-033-062-065-066-302200-
NORTH MIDDLE TENNESSEE

CITY           SKY/WX    TMP DP  RH WIND       PRES   REMARKS
NASHVILLE      LGT RAIN  75  63  66 SW5       29.88S
CLARKSVILLE    CLOUDY    69  64  84 SW7       29.86F
SMYRNA         CLOUDY    77  65  66 S5        29.89F
COOKEVILLE     MOSUNNY   75  66  73 SE3       29.90F
CROSSVILLE     CLOUDY    76  60  57 VRB5      29.95F
$$

TNZ061-075-076-078-094-096-097-302200-
SOUTH MIDDLE TENNESSEE

CITY           SKY/WX    TMP DP  RH WIND       PRES   REMARKS
FAYETTEVILLE   SUNNY     77  64  65 SW6       29.89F
TULLAHOMA      SUNNY     75  64  69 VRB3      29.90F
WINCHESTER     MOSUNNY   79  63  57 NW7       29.89F
MCMINNVILLE    MOSUNNY   75  64  69 W6        29.90F
COLUMBIA       PTSUNNY   73  73 100 SW7       29.87F
SHELBYVILLE    SUNNY     79  64  61 SW8       29.90F
$$

TNZ017-018-042-046-047-302200-
NORTHEAST TENNESSEE

CITY           SKY/WX    TMP DP  RH WIND       PRES   REMARKS
TRI CITIES     CLOUDY    73  57  57 NW16      29.98R
$$

TNZ012-013-036-069-073-074-302200-
CENTRAL EAST TENNESSEE

CITY           SKY/WX    TMP DP  RH WIND       PRES   REMARKS
KNOXVILLE      CLOUDY    67  61  81 NE9       29.94F
OAK RIDGE      CLOUDY    66  63  90 VRB3      29.96S
GATLINBURG     MOCLDY    68  57  68 SE5       29.97S
$$

TNZ083-085-099-302200-
SOUTHEAST TENNESSEE

CITY           SKY/WX    TMP DP  RH WIND       PRES   REMARKS
CHATTANOOGA    CLOUDY    80  64  58 N7        29.88F THUNDER
$$

SKY/WX REPORTED AS FAIR MEANS FEW OR NO CLOUDS BELOW
12 THOUSAND FEET.





USA.gov is the U.S. government's official web portal to all federal, state and local government web resources and services.